SCP
0 0 0 0 0 0 0 0 0 0 0 0 0 0 0 0 0 0 0 0 0 0 0 0 0 0 0 0 0 0 0 0 0 0 0 0 0 0 0 0 0 0 0
0 0 0 0 0 0 0 0 0 0 0 0 0 0 0 0 0 0 0 0 0 0 0 0 0 0 0 0 0 0 0 0 0 0 0 0 0 0 0 0 0 0 0
0 0 0 0 0 0 0 0 0 0 0 0 0 0 0 0 0 0 0 0 0 0 0 0 0 0 0 0 0 0 0 0 0 0 0 0 0 0 0 0 0 0 0
0 0 0 0 0 0 0 0 0 0 0 0 0 0 0 0 0 0 0 0 0 0 0 0 0 0 0 0 0 0 0 0 0 0 0 0 0 0 0 0 0 0 0
0 0 0 0 0 0 0 0 0 0 0 0 0 0 0 0 0 0 0 0 0 0 0 0 0 0 0 0 0 0 0 0 0 0 0 0 0 0 0 0 0 0 0
0 0 0 0 0 0 0 0 0 0 0 0 0 0 0 0 0 0 0 0 0 0 0 0 0 0 0 0 0 0 0 0 0 0 0 0 0 0 0 0 0 0 0
0 0 0 0 0 0 0 0 0 0 0 0 0 0 0 0 0 0 0 0 0 0 0 0 0 0 0 0 0 0 0 0 0 0 0 0 0 0 0 0 0 0 0
0 0 0 0 0 0 0 0 0 0 0 0 0 0 0 0 0 0 0 0 0 0 0 0 0 0 0 0 0 0 0 0 0 0 0 0 0 0 0 0 0 0 0
0 0 0 0 0 0 0 0 0 0 0 0 0 0 0 0 0 0 0 0 0 0 0 0 0 0 0 0 0 0 0 0 0 0 0 0 0 0 0 0 0 0 0
0 0 0 0 0 0 0 0 0 0 0 0 0 0 0 0 0 0 0 0 0 0 0 0 0 0 1 1 1 0 0 0 0 0 0 0 0 0 0 0 0 0 0
0 0 0 0 0 0 0 0 0 0 0 0 0 0 0 0 0 0 0 0 0 0 0 0 0 0 0 1 1 0 0 0 0 0 0 0 0 0 0 0 0 0 0
0 0 0 0 0 0 0 0 0 0 0 0 0 0 0 0 1 1 1 0 0 0 0 0 0 0 0 0 0 0 0 0 0 0 0 0 0 0 0 0 0 0 0
0 0 0 0 0 0 0 0 0 0 0 0 0 0 0 0 1 1 1 1 0 0 0 0 0 0 0 0 0 0 0 0 0 0 0 0 0 0 0 0 0 0 0
0 0 0 0 0 0 0 0 0 0 0 0 0 0 0 0 1 1 1 1 1 0 0 0 0 0 0 0 0 0 0 0 0 0 0 0 0 0 0 0 0 0 0
0 0 0 0 0 0 0 0 0 0 0 0 0 0 1 1 1 1 1 1 1 0 0 0 0 0 0 0 0 0 0 0 0 0 0 0 0 0 0 0 0 0 0
0 0 0 0 0 0 0 0 0 0 0 0 0 1 1 1 1 1 1 1 1 1 0 0 0 0 0 0 0 0 0 0 0 0 0 0 0 0 0 0 0 0 0
0 0 0 0 0 0 0 0 0 0 0 0 0 0 0 1 1 1 1 1 1 1 1 0 0 0 1 1 0 0 0 0 0 0 0 0 0 0 0 0 0 0 0
0 0 0 0 0 0 0 0 0 0 0 0 0 0 0 1 1 1 1 1 1 1 1 1 0 0 1 1 1 1 0 0 0 0 0 0 0 0 0 0 0 0 0
0 0 0 0 0 0 0 0 0 0 0 0 0 0 0 1 1 1 1 1 1 1 1 1 1 1 1 1 1 1 0 0 0 0 0 0 0 0 0 0 0 0 0
0 0 0 0 0 0 0 0 0 0 0 0 0 0 1 1 1 1 1 1 1 1 1 1 1 1 1 1 1 1 1 0 0 0 0 0 0 0 0 0 0 0 0
0 0 0 0 0 0 0 0 0 0 0 0 1 1 1 1 1 1 1 1 1 1 1 1 1 1 1 1 1 1 1 1 0 0 0 0 0 0 0 0 0 0 0
1 1 1 1 1 0 0 0 0 0 0 1 1 1 1 1 0 0 0 0 0 1 1 1 1 1 1 1 1 1 1 1 0 0 0 0 0 0 0 0 0 0 0
1 1 1 1 1 1 0 0 0 0 1 1 1 1 1 1 1 1 0 0 0 0 0 1 1 1 1 1 1 1 1 1 1 0 0 0 0 0 0 0 0 0 0
1 1 1 1 1 1 0 0 0 0 1 1 1 1 1 1 1 1 1 1 1 0 0 0 1 1 1 1 1 1 1 1 1 1 0 0 0 0 0 0 0 0 0
2 1 1 1 1 1 0 0 0 0 1 1 1 1 1 1 1 0 1 1 1 1 0 0 0 0 0 0 1 1 1 1 1 1 0 0 0 0 0 0 0 0 0
2 1 1 1 1 1 0 0 0 0 1 1 1 1 1 1 0 0 1 1 1 1 1 0 0 0 0 0 0 1 1 1 1 1 0 0 0 0 0 0 0 0 0
Wind_Speed
3 3 2 2 2 2 3 3 2 3 3 3 3 3 3 3 3 3 4 8 6 6 7 7 7 8 8 9 9 9 9 9 9 9 10 10 10 10 10 10 10 9 9
2 2 3 2 2 2 2 2 2 3 2 2 2 3 3 3 3 3 3 6 8 7 7 7 7 8 9 9 10 9 10 10 10 10 10 10 11 11 11 11 11 10 10
2 2 2 2 2 2 3 2 2 2 2 3 3 3 3 3 3 3 3 3 5 8 8 7 8 8 9 10 10 10 10 10 10 10 10 10 10 10 10 11 11 10 10
2 1 1 1 2 2 2 2 2 2 1 2 2 2 2 3 4 4 4 4 3 3 7 8 7 8 8 9 10 10 11 11 11 11 11 11 11 11 10 11 11 11 10
1 1 1 1 2 2 2 2 2 1 2 2 2 2 2 2 3 4 4 4 3 3 3 6 8 7 8 8 8 9 10 12 12 12 12 12 12 11 11 11 11 11 11
1 1 1 2 2 2 1 1 2 2 2 2 2 1 2 2 2 2 4 4 3 4 4 3 4 6 8 7 7 8 9 10 12 13 13 12 12 11 11 11 11 12 12
1 1 1 1 2 2 2 3 2 3 2 2 2 2 2 3 2 2 3 3 3 4 3 3 4 3 4 8 7 7 8 9 10 11 12 12 12 12 11 12 12 13 13
2 2 2 2 2 2 3 2 2 2 2 2 2 2 2 3 3 2 3 3 3 3 4 5 4 4 4 3 4 7 8 9 9 10 10 11 11 11 12 13 13 13 13
1 1 1 1 1 3 2 2 2 3 2 2 2 2 2 1 0 2 2 2 2 2 3 3 4 4 4 4 3 6 7 7 8 9 10 11 10 11 11 12 13 13 13
1 2 2 2 2 2 2 4 3 3 3 2 2 2 3 2 2 1 2 2 3 3 3 3 2 3 3 3 2 1 4 5 6 8 8 8 9 10 10 11 12 13 13
2 2 2 2 2 2 2 2 2 3 3 3 2 2 2 3 4 3 2 2 2 2 2 2 2 2 2 3 2 1 3 3 4 5 6 7 8 8 9 9 10 10 11
2 2 2 2 3 2 2 3 3 4 3 3 3 3 3 3 3 3 3 3 2 1 2 1 2 2 2 2 1 2 2 2 3 4 5 6 7 7 8 8 9 9 9
1 1 1 2 2 2 2 3 3 3 3 3 4 4 3 3 3 3 4 3 3 2 2 2 2 2 1 1 1 2 2 2 2 2 3 4 5 6 6 7 8 8 8
1 1 2 2 2 3 3 3 3 4 3 4 4 4 4 3 3 3 3 3 4 3 2 2 1 1 1 2 0 3 2 3 2 2 3 3 3 3 4 5 6 6 6
2 1 2 2 3 3 3 3 3 4 3 4 4 4 4 3 3 3 3 4 4 4 3 1 2 1 2 1 0 2 2 2 2 2 2 2 3 3 3 3 4 5 5
2 2 2 3 3 3 3 4 4 3 4 3 3 3 4 4 3 3 3 3 4 4 4 2 1 2 2 2 1 2 2 3 3 2 2 2 2 2 3 3 4 4 4
3 3 3 3 3 3 3 3 4 3 4 4 4 4 4 4 3 3 3 3 3 3 4 3 2 1 2 3 2 2 3 3 2 4 3 2 1 2 2 3 4 4 4
3 3 3 3 3 3 3 4 4 4 4 4 4 4 4 3 4 4 3 3 3 3 4 4 3 2 2 3 2 3 3 2 1 5 5 3 2 1 1 2 4 4 5
3 3 3 3 3 3 3 4 4 4 4 4 4 4 4 4 5 3 4 3 3 3 3 4 4 2 3 2 2 3 2 2 2 4 5 5 4 3 2 2 2 4 5
4 3 3 3 3 4 4 4 4 5 5 4 4 5 5 4 4 5 4 4 3 3 3 4 4 3 3 2 2 2 2 2 1 1 2 3 4 5 4 4 3 4 4
4 4 4 4 4 4 3 4 5 5 5 5 5 5 4 3 4 4 4 3 3 4 4 4 4 3 2 2 2 2 2 2 1 1 2 2 3 3 4 5 5 4 4
5 4 4 4 5 3 0 3 6 5 5 5 5 5 5 5 4 5 4 5 5 5 5 5 4 4 3 3 2 3 2 2 2 1 2 2 2 2 2 2 5 6 5
5 5 5 5 5 2 2 4 6 7 6 6 6 5 5 3 5 5 5 7 7 7 7 7 6 6 5 3 4 4 3 3 3 1 2 3 2 2 2 3 8 7 6
5 5 5 5 4 3 4 4 6 7 7 6 6 6 6 5 4 4 5 5 6 5 6 7 6 6 5 4 5 5 4 4 3 2 2 3 2 2 2 3 9 8 7
5 5 5 5 5 4 4 5 6 6 6 7 7 6 6 6 2 3 6 6 6 5 5 5 5 5 4 5 5 5 4 4 3 2 3 3 2 2 2 2 6 9 8
5 5 4 4 5 4 5 5 7 6 6 6 6 6 6 6 3 4 7 6 6 5 4 4 5 6 7 6 7 7 5 4 3 2 2 2 2 2 2 2 3 5 6
Wind_Direction
125 120 120 134 146 141 155 159 157 154 166 175 195 185 199 193 194 201 153 163 185 206 213 210 205 203 207 211 211 213 213 214 212 213 213 211 212 210 206 205 206 207 207
115 122 142 146 146 154 137 145 154 162 170 161 188 195 217 209 195 209 199 171 183 202 214 215 215 217 217 217 216 219 219 220 216 216 216 216 218 215 212 212 211 212 213
117 144 140 157 149 149 147 164 156 165 179 176 184 195 202 219 216 211 220 217 188 191 205 218 223 226 227 224 222 222 221 220 219 220 221 221 221 218 217 217 217 214 215
125 141 131 152 158 166 163 159 184 170 165 198 191 205 196 198 209 208 211 210 222 209 193 204 220 226 226 226 225 226 223 218 218 220 223 226 225 222 221 222 222 219 217
152 175 143 121 171 158 165 193 137 185 187 208 202 197 216 211 211 214 213 212 213 228 223 182 202 219 225 229 231 227 224 220 217 220 224 228 228 226 224 226 226 222 220
168 217 168 159 185 163 175 183 158 194 218 218 239 211 236 231 227 219 222 211 209 222 230 224 206 206 210 223 231 226 227 226 220 219 223 226 229 228 228 227 226 226 225
180 225 256 141 209 183 196 195 190 189 204 208 234 227 213 209 207 221 227 227 217 222 231 226 229 234 202 204 218 227 231 232 226 224 225 226 228 229 228 224 226 227 226
212 204 204 204 190 189 190 198 205 231 204 195 247 253 224 188 191 196 202 209 224 222 223 222 227 228 253 228 193 209 227 234 236 233 230 230 229 228 226 226 226 225 223
215 255 222 243 215 225 187 205 215 227 230 218 229 272 275 289 297 176 203 208 221 240 243 230 226 226 235 246 231 198 217 232 239 241 236 235 233 229 228 230 229 225 224
210 215 216 219 238 238 199 222 193 225 240 243 215 246 282 320 282 238 205 197 209 229 258 264 249 225 229 235 218 217 200 224 238 244 241 236 234 232 231 232 233 229 226
213 222 217 224 230 236 226 247 227 239 241 254 254 244 240 237 251 264 263 249 227 224 229 249 260 257 242 245 239 159 169 216 235 238 239 240 237 235 233 231 231 228 225
195 199 222 228 237 247 234 233 234 229 248 261 268 262 251 253 254 256 265 261 260 253 234 247 258 254 244 243 232 86 146 204 229 235 239 240 239 238 233 232 230 227 227
200 171 231 239 248 240 243 247 238 250 246 249 253 261 265 265 269 267 269 277 283 275 237 230 237 250 253 252 193 130 157 187 221 234 240 241 239 242 237 232 231 230 229
246 168 214 227 239 243 243 238 247 243 241 245 251 260 268 267 268 265 267 274 274 269 250 248 255 245 270 259 77 216 202 170 215 234 236 235 236 241 238 230 228 227 226
230 211 235 234 238 242 250 247 249 251 248 250 249 239 252 260 262 266 267 270 273 275 274 243 248 261 267 268 121 246 260 151 197 220 227 231 235 238 237 227 222 218 213
254 249 250 245 241 243 245 250 247 241 250 255 264 270 266 261 266 264 262 262 265 271 279 291 277 291 306 281 196 256 252 170 182 191 203 217 225 230 225 212 201 199 198
232 235 236 234 235 241 245 245 257 258 257 259 259 253 261 276 277 272 263 261 258 263 269 280 283 274 269 278 278 272 256 240 167 156 161 180 217 222 220 208 199 194 192
224 227 234 234 236 238 243 244 251 252 253 257 262 261 261 260 263 270 272 267 263 265 261 273 280 273 262 256 264 267 262 245 233 143 157 169 179 170 182 196 199 193 189
218 223 234 240 246 249 249 246 249 253 255 259 264 261 258 259 262 262 261 265 260 252 249 256 266 276 268 259 258 251 250 257 251 159 169 179 172 172 177 178 182 188 186
209 212 225 236 244 248 250 250 249 251 253 256 261 261 259 260 259 258 251 248 255 257 248 252 255 252 253 242 251 259 247 222 246 233 182 177 170 182 183 183 176 171 176
212 210 221 229 239 242 253 263 257 248 250 252 252 255 256 272 291 278 279 266 254 256 256 254 253 254 259 248 251 257 260 256 214 241 238 209 191 200 185 188 183 168 166
218 216 223 230 239 251 313 288 279 261 254 256 256 256 245 232 231 231 259 275 278 265 269 267 263 261 260 254 255 257 254 257 251 198 257 254 218 224 207 185 143 154 163
214 219 225 228 234 232 193 240 262 267 258 259 260 259 260 249 245 250 223 224 238 243 250 263 269 268 261 251 246 245 246 260 266 228 241 263 246 240 229 139 145 160 168
220 223 224 227 234 217 193 229 248 250 257 256 256 257 261 261 264 267 262 255 252 237 232 241 256 262 263 260 245 245 242 238 231 208 206 260 262 254 235 162 156 168 174
225 227 223 224 231 221 200 228 248 245 244 247 247 246 250 250 228 253 258 259 262 256 220 226 250 258 268 256 253 246 233 234 234 208 199 246 254 266 252 206 163 171 178
225 227 218 223 227 230 198 219 243 249 244 244 237 235 232 245 224 235 252 257 256 257 260 226 221 226 229 223 221 236 242 244 253 247 174 228 245 245 242 215 176 175 186